Location: Unspecified
(0.0000°N, 0.0000°E)
Time: 16:52:06
(UTC+00:00)

HO-68 - Pass Details

Date: 08 June 2023
Orbit: 1193 x 1204 km, 100.3° (Epoch: 28 September)

Event Time Altitude Azimuth Distance (km) Brightness Sun altitude
Rises 03:33:37 0° 0° (N) 4,088 ? -33.1°
Reaches altitude 10° 03:36:21 10° 354° (N) 3,124 ? -32.5°
Enters shadow 03:40:59 36° 323° (NW) 1,794 ? -31.5°
